Location: Seven Kings
(51.5667°N, 0.1000°E)
Time: 09:29:00
(UTC+00:00)

ISS - Visible Passes

Search period start: 25 June 2021 00:00
Search period end: 05 July 2021 00:00
Orbit: 419 x 422 km, 51.6° (Epoch: 25 June)

Date Brightness Start Highest point End Pass type
(mag) Time Alt. Az. Time Alt. Az. Time Alt. Az.
01 Jul -1.7 02:18:05 11° S 02:20:06 16° SE 02:22:17 10° E visible
02 Jul -1.4 01:32:24 11° SSE 01:33:00 11° SE 01:34:00 10° ESE visible
03 Jul -2.7 02:19:35 15° SSW 02:21:54 31° SSE 02:24:57 10° E visible
04 Jul -2.3 01:33:45 20° S 01:34:40 23° SE 01:37:24 10° E visible
